TimeEDT,TemperatureF,Dew PointF,Humidity,Sea Level PressureIn,VisibilityMPH,Wind Direction,Wind SpeedMPH,Gust SpeedMPH,PrecipitationIn,Events,Conditions,WindDirDegrees,DateUTC
12:53 AM,72.0,70.0,93,29.89,6.0,South,5.8,-,N/A,,Overcast,170,2013-08-08 04:53:00
1:53 AM,71.1,70.0,96,29.90,5.0,South,4.6,-,N/A,,Mostly Cloudy,190,2013-08-08 05:53:00
2:53 AM,73.0,70.0,90,29.88,7.0,Calm,Calm,-,N/A,,Partly Cloudy,0,2013-08-08 06:53:00
3:53 AM,73.0,70.0,90,29.89,6.0,NW,3.5,-,N/A,,Mostly Cloudy,320,2013-08-08 07:53:00
4:23 AM,71.6,69.8,94,29.92,5.0,Calm,Calm,-,N/A,,Mostly Cloudy,0,2013-08-08 08:23:00
4:35 AM,69.8,69.8,100,29.92,4.0,SW,3.5,-,N/A,,Scattered Clouds,220,2013-08-08 08:35:00
4:53 AM,70.0,68.0,93,29.89,4.0,Calm,Calm,-,N/A,,Partly Cloudy,0,2013-08-08 08:53:00
5:35 AM,69.8,69.8,100,29.92,1.8,Calm,Calm,-,N/A,,Clear,0,2013-08-08 09:35:00
5:43 AM,69.8,68.0,94,29.92,0.5,Calm,Calm,-,N/A,Fog,Fog,0,2013-08-08 09:43:00
5:53 AM,70.0,69.1,97,29.89,2.5,North,3.5,-,N/A,,Partly Cloudy,10,2013-08-08 09:53:00
6:00 AM,69.8,69.8,100,29.92,4.0,North,3.5,-,N/A,,Partly Cloudy,360,2013-08-08 10:00:00
6:28 AM,68.0,66.2,94,29.93,1.8,SW,3.5,-,N/A,,Partly Cloudy,230,2013-08-08 10:28:00
6:39 AM,68.0,66.2,94,29.93,1.5,Calm,Calm,-,N/A,,Mostly Cloudy,0,2013-08-08 10:39:00
6:49 AM,69.8,66.2,88,29.92,0.5,Calm,Calm,-,N/A,Fog,Fog,0,2013-08-08 10:49:00
6:53 AM,69.1,68.0,96,29.90,1.0,Calm,Calm,-,N/A,,Overcast,0,2013-08-08 10:53:00
7:01 AM,69.8,66.2,88,29.93,3.0,Calm,Calm,-,N/A,,Overcast,0,2013-08-08 11:01:00
7:41 AM,71.6,69.8,94,29.93,2.5,NE,6.9,-,N/A,,Overcast,40,2013-08-08 11:41:00
7:53 AM,72.0,70.0,93,29.91,2.5,NNE,9.2,-,N/A,,Overcast,30,2013-08-08 11:53:00
8:25 AM,71.6,69.8,94,29.94,3.0,NE,11.5,-,N/A,,Overcast,40,2013-08-08 12:25:00
8:53 AM,72.0,69.1,91,29.92,4.0,ENE,8.1,-,N/A,,Overcast,60,2013-08-08 12:53:00
9:53 AM,72.0,69.1,91,29.92,4.0,NNE,10.4,-,N/A,,Overcast,20,2013-08-08 13:53:00
10:53 AM,72.0,69.1,91,29.95,3.0,NE,9.2,-,N/A,,Overcast,40,2013-08-08 14:53:00
11:10 AM,71.6,69.8,94,29.98,2.5,North,9.2,-,N/A,,Overcast,10,2013-08-08 15:10:00
11:36 AM,71.6,68.0,88,29.99,3.0,North,10.4,-,N/A,,Overcast,10,2013-08-08 15:36:00
11:53 AM,72.0,68.0,87,29.96,7.0,NNE,9.2,-,N/A,,Overcast,20,2013-08-08 15:53:00
12:53 PM,71.1,66.9,87,29.95,8.0,North,10.4,-,0.00,Rain,Light Rain,10,2013-08-08 16:53:00
1:53 PM,71.1,66.9,87,29.95,10.0,NNE,15.0,-,0.01,,Overcast,30,2013-08-08 17:53:00
2:53 PM,71.1,66.9,87,29.94,10.0,NNE,9.2,-,0.03,,Overcast,30,2013-08-08 18:53:00
3:31 PM,73.4,68.0,83,29.96,10.0,ENE,11.5,-,N/A,,Overcast,70,2013-08-08 19:31:00
3:53 PM,73.0,68.0,84,29.93,10.0,ENE,11.5,-,N/A,,Overcast,70,2013-08-08 19:53:00
4:53 PM,73.0,68.0,84,29.93,10.0,NNE,10.4,-,N/A,,Overcast,30,2013-08-08 20:53:00
5:53 PM,72.0,66.9,84,29.92,10.0,NNE,11.5,-,N/A,,Overcast,30,2013-08-08 21:53:00
6:53 PM,73.0,66.9,81,29.92,10.0,NE,8.1,-,N/A,,Overcast,40,2013-08-08 22:53:00
7:53 PM,72.0,66.0,81,29.92,10.0,NE,10.4,-,N/A,,Overcast,40,2013-08-08 23:53:00
8:53 PM,71.1,66.0,84,29.92,10.0,NNE,8.1,-,N/A,,Overcast,30,2013-08-09 00:53:00
9:06 PM,71.6,66.2,83,29.95,10.0,NNE,9.2,-,N/A,,Overcast,30,2013-08-09 01:06:00
9:53 PM,71.1,66.0,84,29.94,10.0,NE,9.2,-,N/A,,Overcast,40,2013-08-09 01:53:00
10:53 PM,71.1,64.9,81,29.94,10.0,NE,9.2,-,N/A,,Overcast,50,2013-08-09 02:53:00
11:53 PM,70.0,64.9,84,29.94,10.0,NE,9.2,-,N/A,,Overcast,50,2013-08-09 03:53:00